Date String (YYYY-MM-DD hh:mm:ss) UTC,Instrument flags,absolute air pressure of the measurement (hPa),sample flow rate (lpm),inlet stack bypass flow (lpm),air temperature of the measurement (°C),ambient temperature measured by the external sensor (°C),aerosol sample conditioner tube jacket temperature (°C),OPC LED temperature (°C),internal box temperature (°C),relative humidity of the measurement (%),span deviation,mass concentration of particles derived from Lorenz-Mie calculation of OPC scattering (μg/m³),mass concentration of particles derived from Lorenz-Mie calculation of OPC scattering (μg/m³),mass concentration of particles derived from Lorenz-Mie calculation of OPC scattering (μg/m³)
DateTimeUTC,F1_M11,P_M11,Q1_M11,Q2_M11,T1_M11,T2_M11,T3_M11,T4_M11,T5_M11,U1_M11,ZSPAN_M11,X2_M11,X0_M11,X1_M11
2024-01-25 22:00:00,SystemResetWarning,0825.3,5.01,000.00,024.8,024.1,000.0,033.1,026.1,11.9,0000.0,0005.90,0012.47,0005.35
2024-01-25 22:01:00,SystemResetWarning,0825.3,5.00,000.00,024.8,024.0,000.0,033.1,026.1,11.9,0000.0,0005.84,0012.31,0005.31
2024-01-25 22:02:00,SystemResetWarning,0825.3,4.99,000.00,024.8,024.0,000.0,033.1,026.1,11.8,0000.0,0005.82,0012.31,0005.30
2024-01-25 22:03:00,SystemResetWarning,0825.2,5.00,000.00,024.8,024.0,000.0,033.1,026.1,11.9,0000.0,0005.80,0012.66,0005.27
2024-01-25 22:04:00,SystemResetWarning,0825.3,4.99,000.00,024.8,024.1,000.0,033.1,026.1,12.0,0000.0,0005.82,0012.71,0005.26
2024-01-25 22:05:00,SystemResetWarning,0825.2,4.99,000.00,024.8,024.1,000.0,033.1,026.1,12.0,0002.9,0005.82,0012.30,0005.25
2024-01-25 22:06:00,SystemResetWarning,0825.3,5.00,000.00,024.8,024.1,000.0,033.1,026.1,12.0,0004.4,0005.82,0012.50,0005.24
2024-01-25 22:07:00,SystemResetWarning,0825.3,5.00,000.00,024.8,024.1,000.0,033.1,026.1,12.1,0004.7,0005.79,0012.84,0005.22
2024-01-25 22:08:00,SystemResetWarning,0825.3,5.01,000.00,024.8,024.1,000.0,033.1,026.1,12.2,0005.0,0005.78,0012.72,0005.20
2024-01-25 22:09:00,SystemResetWarning,0825.3,5.00,000.00,024.8,024.1,000.0,033.1,026.1,12.6,0004.7,0005.77,0012.64,0005.18
2024-01-25 22:10:00,SystemResetWarning,0825.3,5.00,000.00,024.8,024.1,000.0,033.1,026.1,12.9,0004.1,0005.73,0012.41,0005.15
2024-01-25 22:11:00,SystemResetWarning,0825.3,4.99,000.00,024.8,024.1,000.0,033.1,026.1,13.1,0001.6,0005.66,0011.95,0005.13
2024-01-25 22:12:00,SystemResetWarning,0825.3,4.99,000.00,024.8,024.1,000.0,033.1,026.1,13.0,0003.6,0005.67,0012.07,0005.11
2024-01-25 22:13:00,SystemResetWarning,0825.3,5.00,000.00,024.8,024.1,000.0,033.1,026.1,13.0,0004.0,0005.63,0011.94,0005.08
2024-01-25 22:14:00,SystemResetWarning,0825.3,5.00,000.00,024.8,024.1,000.0,033.1,026.1,13.2,0004.3,0005.58,0011.62,0005.05
2024-01-25 22:15:00,SystemResetWarning,0825.3,5.00,000.00,024.8,024.1,000.0,033.1,026.1,13.1,0004.5,0005.52,0011.57,0005.02
2024-01-25 22:16:00,SystemResetWarning,0825.3,4.99,000.00,024.8,024.1,000.0,033.1,026.1,13.0,0004.8,0005.45,0011.24,0004.99
2024-01-25 22:17:00,SystemResetWarning,0825.3,5.00,000.00,024.8,024.1,000.0,033.1,026.1,13.0,0005.1,0005.39,0010.87,0004.96
2024-01-25 22:18:00,SystemResetWarning,0825.3,5.01,000.00,024.8,024.1,000.0,033.1,026.1,13.1,0004.1,0005.36,0010.39,0004.93
2024-01-25 22:19:00,SystemResetWarning,0825.3,5.01,000.00,024.8,024.1,000.0,033.1,026.1,13.0,0004.6,0005.28,0010.10,0004.88
2024-01-25 22:20:00,SystemResetWarning,0825.3,5.00,000.00,024.8,024.1,000.0,033.1,026.1,13.0,0004.3,0005.25,0009.99,0004.86
2024-01-25 22:21:00,SystemResetWarning,0825.4,5.00,000.00,024.8,024.1,000.0,033.1,026.1,13.1,0001.8,0005.22,0009.97,0004.83
2024-01-25 22:22:00,SystemResetWarning,0825.3,5.00,000.00,024.8,024.1,000.0,033.1,026.1,13.1,0004.9,0005.19,0010.59,0004.81
2024-01-25 22:23:00,SystemResetWarning,0825.3,4.99,000.00,024.8,024.1,000.0,033.1,026.1,13.1,0000.3,0005.16,0010.30,0004.80
2024-01-25 22:24:00,SystemResetWarning,0825.4,5.00,000.00,024.8,024.1,000.0,033.1,026.1,13.1,0000.0,0005.15,0009.87,0004.79
2024-01-25 22:25:00,SystemResetWarning,0825.4,4.99,000.00,024.8,024.1,000.0,033.1,026.1,13.1,0000.0,0005.15,0009.24,0004.78
2024-01-25 22:26:00,SystemResetWarning,0825.4,5.00,000.00,024.8,024.0,000.0,033.1,026.1,13.0,0000.0,0005.12,0009.27,0004.77
2024-01-25 22:27:00,SystemResetWarning,0825.4,5.00,000.00,024.8,024.0,000.0,033.1,026.1,13.0,0000.0,0005.10,0009.69,0004.75
2024-01-25 22:28:00,SystemResetWarning,0825.4,5.00,000.00,024.8,024.1,000.0,033.1,026.1,13.0,0000.0,0005.08,0009.65,0004.74
2024-01-25 22:29:00,SystemResetWarning,0825.4,5.01,000.00,024.9,024.1,000.0,033.1,026.1,13.0,0000.0,0005.07,0009.48,0004.74
2024-01-25 22:30:00,SystemResetWarning,0825.4,5.01,000.00,024.8,024.0,000.0,033.1,026.1,13.0,0000.0,0005.10,0009.60,0004.75
2024-01-25 22:31:00,SystemResetWarning,0825.4,5.00,000.00,024.8,024.0,000.0,033.1,026.1,12.9,0000.0,0005.11,0009.68,0004.75
2024-01-25 22:32:00,SystemResetWarning,0825.4,4.99,000.00,024.8,024.0,000.0,033.1,026.1,13.0,0000.0,0005.14,0009.73,0004.77
2024-01-25 22:33:00,SystemResetWarning,0825.4,4.99,000.00,024.8,024.0,000.0,033.1,026.1,13.1,0000.0,0005.22,0009.45,0004.83
2024-01-25 22:34:00,SystemResetWarning,0825.4,5.00,000.00,024.8,024.0,000.0,033.1,026.1,13.1,0000.0,0005.32,0009.93,0004.93
2024-01-25 22:35:00,SystemResetWarning,0825.4,5.01,000.00,024.8,024.0,000.0,033.1,026.1,13.1,0000.0,0005.47,0010.29,0005.06
2024-01-25 22:36:00,SystemResetWarning,0825.4,5.00,000.00,024.8,024.1,000.0,033.1,026.1,13.0,0000.0,0005.63,0010.52,0005.18
2024-01-25 22:37:00,SystemResetWarning,0825.4,4.99,000.00,024.8,024.1,000.0,033.1,026.1,13.1,0000.0,0005.76,0010.65,0005.30
2024-01-25 22:38:00,SystemResetWarning,0825.4,4.99,000.00,024.8,024.1,000.0,033.1,026.1,13.1,0000.0,0005.90,0010.33,0005.41
2024-01-25 22:39:00,SystemResetWarning,0825.4,5.00,000.00,024.8,024.0,000.0,033.1,026.0,13.0,0002.4,0006.08,0010.83,0005.53
2024-01-25 22:40:00,SystemResetWarning,0825.4,5.01,000.00,024.8,024.0,000.0,033.1,026.1,13.0,0002.8,0006.24,0011.80,0005.66
2024-01-25 22:41:00,SystemResetWarning,0825.4,5.01,000.00,024.8,024.0,000.0,033.1,026.1,13.0,0002.6,0006.35,0012.45,0005.77
2024-01-25 22:42:00,SystemResetWarning,0825.4,5.00,000.00,024.8,024.0,000.0,033.1,026.1,13.0,0002.6,0006.48,0013.18,0005.87
2024-01-25 22:43:00,SystemResetWarning,0825.4,4.99,000.00,024.8,024.0,000.0,033.1,026.1,12.9,0003.3,0006.65,0013.55,0005.99
2024-01-25 22:44:00,SystemResetWarning,0825.4,4.99,000.00,024.8,024.0,000.0,033.1,026.1,12.9,0003.7,0006.75,0013.71,0006.06
2024-01-25 22:45:00,SystemResetWarning,0825.4,4.99,000.00,024.8,024.0,000.0,033.1,026.1,13.0,0003.8,0006.82,0013.29,0006.09
2024-01-25 22:46:00,SystemResetWarning,0825.4,5.01,000.00,024.8,024.0,000.0,033.1,026.1,13.1,0003.4,0006.84,0013.30,0006.08
2024-01-25 22:47:00,SystemResetWarning,0825.4,5.00,000.00,024.8,024.0,000.0,033.1,026.0,13.1,0003.4,0006.86,0014.07,0006.09
2024-01-25 22:48:00,SystemResetWarning,0825.4,5.01,000.00,024.8,024.0,000.0,033.1,026.0,13.0,0003.7,0006.92,0014.60,0006.11
2024-01-25 22:49:00,SystemResetWarning,0825.4,5.01,000.00,024.8,024.0,000.0,033.1,026.0,13.0,0004.1,0007.00,0014.99,0006.13
2024-01-25 22:50:00,SystemResetWarning,0825.4,5.00,000.00,024.8,024.0,000.0,033.1,026.0,13.0,0004.4,0007.03,0015.53,0006.15
2024-01-25 22:51:00,SystemResetWarning,0825.4,5.00,000.00,024.8,024.0,000.0,033.1,026.0,13.1,0004.3,0007.08,0015.10,0006.17
2024-01-25 22:52:00,SystemResetWarning,0825.4,5.00,000.00,024.8,024.0,000.0,033.1,026.0,13.2,0004.3,0007.17,0014.87,0006.19
2024-01-25 22:53:00,SystemResetWarning,0825.4,5.00,000.00,024.8,024.0,000.0,033.1,026.0,13.2,0004.6,0007.23,0015.09,0006.21
2024-01-25 22:54:00,SystemResetWarning,0825.4,4.99,000.00,024.8,024.0,000.0,033.1,026.0,13.2,0004.6,0007.26,0015.74,0006.23
2024-01-25 22:55:00,SystemResetWarning,0825.4,5.00,000.00,024.8,024.0,000.0,033.1,026.0,13.3,0004.6,0007.28,0016.95,0006.26
2024-01-25 22:56:00,SystemResetWarning,0825.4,5.00,000.00,024.8,024.0,000.0,033.1,026.0,13.3,0004.6,0007.29,0017.27,0006.27
2024-01-25 22:57:00,SystemResetWarning,0825.4,5.00,000.00,024.8,024.0,000.0,033.1,026.0,13.2,0004.9,0007.31,0018.00,0006.30
2024-01-25 22:58:00,SystemResetWarning,0825.4,5.01,000.00,024.8,024.0,000.0,033.1,026.0,13.3,0005.1,0007.32,0017.18,0006.31
2024-01-25 22:59:00,SystemResetWarning,0825.4,5.00,000.00,024.8,024.0,000.0,033.1,026.0,13.2,0004.8,0007.33,0017.72,0006.33
